Year,Month,Day,Hour,Minute,Value (Times are PST for temperature in C)
2020,04,13,00,00,4.90
2020,04,13,00,01,4.90
2020,04,13,00,02,4.90
2020,04,13,00,03,4.90
2020,04,13,00,04,4.80
2020,04,13,00,05,4.80
2020,04,13,00,06,4.80
2020,04,13,00,07,4.80
2020,04,13,00,08,4.70
2020,04,13,00,09,4.70
2020,04,13,00,10,4.70
2020,04,13,00,11,4.70
2020,04,13,00,12,4.60
2020,04,13,00,13,4.60
2020,04,13,00,14,4.60
2020,04,13,00,15,4.60
2020,04,13,00,16,4.60
2020,04,13,00,17,4.60
2020,04,13,00,18,4.60
2020,04,13,00,19,4.60
2020,04,13,00,20,4.50
2020,04,13,00,21,4.50
2020,04,13,00,22,4.50
2020,04,13,00,23,4.50
2020,04,13,00,24,4.50
2020,04,13,00,25,4.60
2020,04,13,00,26,4.60
2020,04,13,00,27,4.60
2020,04,13,00,28,4.60
2020,04,13,00,29,4.60
2020,04,13,00,30,4.70
2020,04,13,00,31,4.70
2020,04,13,00,32,4.70
2020,04,13,00,33,4.70
2020,04,13,00,34,4.70
2020,04,13,00,35,4.80
2020,04,13,00,36,4.80
2020,04,13,00,37,4.80
2020,04,13,00,38,4.80
2020,04,13,00,39,4.90
2020,04,13,00,40,4.90
2020,04,13,00,41,5.00
2020,04,13,00,42,5.00
2020,04,13,00,43,5.10
2020,04,13,00,44,5.10
2020,04,13,00,45,5.10
2020,04,13,00,46,5.10
2020,04,13,00,47,5.10
2020,04,13,00,48,5.10
2020,04,13,00,49,5.20
2020,04,13,00,50,5.20
2020,04,13,00,51,5.30
2020,04,13,00,52,5.50
2020,04,13,00,53,5.60
2020,04,13,00,54,5.70
2020,04,13,00,55,5.80
2020,04,13,00,56,5.90
2020,04,13,00,57,5.90
2020,04,13,00,58,5.90
2020,04,13,00,59,6.00
2020,04,13,01,00,5.90
2020,04,13,01,01,5.90
2020,04,13,01,02,5.90
2020,04,13,01,03,5.80
2020,04,13,01,04,5.80
2020,04,13,01,05,5.80
2020,04,13,01,06,5.80
2020,04,13,01,07,5.70
2020,04,13,01,08,5.70
2020,04,13,01,09,5.60
2020,04,13,01,10,5.60
2020,04,13,01,11,5.50
2020,04,13,01,12,5.40
2020,04,13,01,13,5.40
2020,04,13,01,14,5.40
2020,04,13,01,15,5.30
2020,04,13,01,16,5.30
2020,04,13,01,17,5.30
2020,04,13,01,18,5.20
2020,04,13,01,19,5.20
2020,04,13,01,20,5.20
2020,04,13,01,21,5.20
2020,04,13,01,22,5.20
2020,04,13,01,23,5.20
2020,04,13,01,24,5.10
2020,04,13,01,25,5.10
2020,04,13,01,26,5.10
2020,04,13,01,27,5.10
2020,04,13,01,28,5.10
2020,04,13,01,29,5.10
2020,04,13,01,30,5.10
2020,04,13,01,31,5.10
2020,04,13,01,32,5.10
2020,04,13,01,33,5.10
2020,04,13,01,34,5.10
2020,04,13,01,35,5.10
2020,04,13,01,36,5.10
2020,04,13,01,37,5.10
2020,04,13,01,38,5.10
2020,04,13,01,39,5.20
2020,04,13,01,40,5.20
2020,04,13,01,41,5.20
2020,04,13,01,42,5.20
2020,04,13,01,43,5.30
2020,04,13,01,44,5.40
2020,04,13,01,45,5.40
2020,04,13,01,46,5.50
2020,04,13,01,47,5.60
2020,04,13,01,48,5.60
2020,04,13,01,49,5.70
2020,04,13,01,50,5.70
2020,04,13,01,51,5.80
2020,04,13,01,52,5.80
2020,04,13,01,53,5.80
2020,04,13,01,54,5.80
2020,04,13,01,55,5.70
2020,04,13,01,56,5.70
2020,04,13,01,57,5.60
2020,04,13,01,58,5.60
2020,04,13,01,59,5.50
2020,04,13,02,00,5.50
2020,04,13,02,01,5.50
2020,04,13,02,02,5.40
2020,04,13,02,03,5.40
2020,04,13,02,04,5.40
2020,04,13,02,05,5.50
2020,04,13,02,06,5.60
2020,04,13,02,07,5.70
2020,04,13,02,08,5.70
2020,04,13,02,09,5.70
2020,04,13,02,10,5.70
2020,04,13,02,11,5.70
2020,04,13,02,12,5.70
2020,04,13,02,13,5.70
2020,04,13,02,14,5.70
2020,04,13,02,15,5.60
2020,04,13,02,16,5.60
2020,04,13,02,17,5.70
2020,04,13,02,18,5.70
2020,04,13,02,19,5.70
2020,04,13,02,20,5.70
2020,04,13,02,21,5.70
2020,04,13,02,22,5.70
2020,04,13,02,23,5.70
2020,04,13,02,24,5.60
2020,04,13,02,25,5.60
2020,04,13,02,26,5.50
2020,04,13,02,27,5.50
2020,04,13,02,28,5.50
2020,04,13,02,29,5.50
2020,04,13,02,30,5.40
2020,04,13,02,31,5.40
2020,04,13,02,32,5.40
2020,04,13,02,33,5.40
2020,04,13,02,34,5.40
2020,04,13,02,35,5.40
2020,04,13,02,36,5.30
2020,04,13,02,37,5.30
2020,04,13,02,38,5.30
2020,04,13,02,39,5.30
2020,04,13,02,40,5.30
2020,04,13,02,41,5.30
2020,04,13,02,42,5.40
2020,04,13,02,43,5.40
2020,04,13,02,44,5.40
2020,04,13,02,45,5.40
2020,04,13,02,46,5.50
2020,04,13,02,47,5.60
2020,04,13,02,48,5.60
2020,04,13,02,49,5.60
2020,04,13,02,50,5.70
2020,04,13,02,51,5.70
2020,04,13,02,52,5.70
2020,04,13,02,53,5.70
2020,04,13,02,54,5.70
2020,04,13,02,55,5.70
2020,04,13,02,56,5.70
2020,04,13,02,57,5.70
2020,04,13,02,58,5.60
2020,04,13,02,59,5.60
2020,04,13,03,00,5.60
2020,04,13,03,01,5.50
2020,04,13,03,02,5.50
2020,04,13,03,03,5.40
2020,04,13,03,04,5.40
2020,04,13,03,05,5.40
2020,04,13,03,06,5.30
2020,04,13,03,07,5.30
2020,04,13,03,08,5.30
2020,04,13,03,09,5.20
2020,04,13,03,10,5.20
2020,04,13,03,11,5.20
2020,04,13,03,12,5.20
2020,04,13,03,13,5.10
2020,04,13,03,14,5.10
2020,04,13,03,15,5.10
2020,04,13,03,16,5.00
2020,04,13,03,17,5.00
2020,04,13,03,18,4.90
2020,04,13,03,19,4.90
2020,04,13,03,20,4.90
2020,04,13,03,21,4.80
2020,04,13,03,22,4.80
2020,04,13,03,23,4.80
2020,04,13,03,24,4.80
2020,04,13,03,25,4.80
2020,04,13,03,26,4.70
2020,04,13,03,27,4.80
2020,04,13,03,28,4.80
2020,04,13,03,29,4.80
2020,04,13,03,30,4.80
2020,04,13,03,31,4.80
2020,04,13,03,32,4.80
2020,04,13,03,33,4.80
2020,04,13,03,34,4.80
2020,04,13,03,35,4.80
2020,04,13,03,36,4.80
2020,04,13,03,37,4.80
2020,04,13,03,38,4.80
2020,04,13,03,39,4.80
2020,04,13,03,40,4.80
2020,04,13,03,41,4.80
2020,04,13,03,42,4.80
2020,04,13,03,43,4.80
2020,04,13,03,44,4.70
2020,04,13,03,45,4.70
2020,04,13,03,46,4.70
2020,04,13,03,47,4.60
2020,04,13,03,48,4.60
2020,04,13,03,49,4.60
2020,04,13,03,50,4.50
2020,04,13,03,51,4.50
2020,04,13,03,52,4.40
2020,04,13,03,53,4.40
2020,04,13,03,54,4.30
2020,04,13,03,55,4.30
2020,04,13,03,56,4.20
2020,04,13,03,57,4.20
2020,04,13,03,58,4.20
2020,04,13,03,59,4.10
2020,04,13,04,00,4.10
2020,04,13,04,01,4.00
2020,04,13,04,02,3.90
2020,04,13,04,03,3.90
2020,04,13,04,04,3.90
2020,04,13,04,05,3.90
2020,04,13,04,06,3.90
2020,04,13,04,07,3.90
2020,04,13,04,08,4.00
2020,04,13,04,09,4.00
2020,04,13,04,10,4.00
2020,04,13,04,11,4.00
2020,04,13,04,12,4.00
2020,04,13,04,13,4.00
2020,04,13,04,14,4.00
2020,04,13,04,15,3.90
2020,04,13,04,16,3.90
2020,04,13,04,17,3.90
2020,04,13,04,18,3.90
2020,04,13,04,19,3.90
2020,04,13,04,20,3.80
2020,04,13,04,21,3.80
2020,04,13,04,22,3.80
2020,04,13,04,23,3.70
2020,04,13,04,24,3.70
2020,04,13,04,25,3.70
2020,04,13,04,26,3.60
2020,04,13,04,27,3.60
2020,04,13,04,28,3.50
2020,04,13,04,29,3.40
2020,04,13,04,30,3.40
2020,04,13,04,31,3.30
2020,04,13,04,32,3.30
2020,04,13,04,33,3.30
2020,04,13,04,34,3.20
2020,04,13,04,35,3.20
2020,04,13,04,36,3.20
2020,04,13,04,37,3.20
2020,04,13,04,38,3.10
2020,04,13,04,39,3.10
2020,04,13,04,40,3.10
2020,04,13,04,41,3.10
2020,04,13,04,42,3.10
2020,04,13,04,43,3.10
2020,04,13,04,44,3.10
2020,04,13,04,45,3.10
2020,04,13,04,46,3.10
2020,04,13,04,47,3.10
2020,04,13,04,48,3.10
2020,04,13,04,49,3.10
2020,04,13,04,50,3.10
2020,04,13,04,51,3.10
2020,04,13,04,52,3.10
2020,04,13,04,53,3.10
2020,04,13,04,54,3.10
2020,04,13,04,55,3.10
2020,04,13,04,56,3.10
2020,04,13,04,57,3.10
2020,04,13,04,58,3.10
2020,04,13,04,59,3.10
2020,04,13,05,00,3.10
2020,04,13,05,01,3.10
2020,04,13,05,02,3.20
2020,04,13,05,03,3.20
2020,04,13,05,04,3.30
2020,04,13,05,05,3.30
2020,04,13,05,06,3.30
2020,04,13,05,07,3.30
2020,04,13,05,08,3.40
2020,04,13,05,09,3.40
2020,04,13,05,10,3.40
2020,04,13,05,11,3.40
2020,04,13,05,12,3.40
2020,04,13,05,13,3.40
2020,04,13,05,14,3.50
2020,04,13,05,15,3.50
2020,04,13,05,16,3.50
2020,04,13,05,17,3.50
2020,04,13,05,18,3.50
2020,04,13,05,19,3.50
2020,04,13,05,20,3.50
2020,04,13,05,21,3.40
2020,04,13,05,22,3.40
2020,04,13,05,23,3.40
2020,04,13,05,24,3.40
2020,04,13,05,25,3.30
2020,04,13,05,26,3.30
2020,04,13,05,27,3.30
2020,04,13,05,28,3.30
2020,04,13,05,29,3.20
2020,04,13,05,30,3.20
2020,04,13,05,31,3.20
2020,04,13,05,32,3.20
2020,04,13,05,33,3.20
2020,04,13,05,34,3.20
2020,04,13,05,35,3.20
2020,04,13,05,36,3.10
2020,04,13,05,37,3.10
2020,04,13,05,38,3.10
2020,04,13,05,39,3.10
2020,04,13,05,40,3.10
2020,04,13,05,41,3.10
2020,04,13,05,42,3.10
2020,04,13,05,43,3.10
2020,04,13,05,44,3.10
2020,04,13,05,45,3.10
2020,04,13,05,46,3.10
2020,04,13,05,47,3.10
2020,04,13,05,48,3.20
2020,04,13,05,49,3.20
2020,04,13,05,50,3.20
2020,04,13,05,51,3.20
2020,04,13,05,52,3.20
2020,04,13,05,53,3.20
2020,04,13,05,54,3.20
2020,04,13,05,55,3.20
2020,04,13,05,56,3.20
2020,04,13,05,57,3.20
2020,04,13,05,58,3.20
2020,04,13,05,59,3.10
2020,04,13,06,00,3.10
2020,04,13,06,01,3.10
2020,04,13,06,02,3.10
2020,04,13,06,03,3.10
2020,04,13,06,04,3.00
2020,04,13,06,05,3.00
2020,04,13,06,06,3.00
2020,04,13,06,07,2.90
2020,04,13,06,08,2.90
2020,04,13,06,09,2.80
2020,04,13,06,10,2.80
2020,04,13,06,11,2.80
2020,04,13,06,12,2.70
2020,04,13,06,13,2.70
2020,04,13,06,14,2.70
2020,04,13,06,15,2.70
2020,04,13,06,16,2.70
2020,04,13,06,17,2.60
2020,04,13,06,18,2.60
2020,04,13,06,19,2.60
2020,04,13,06,20,2.60
2020,04,13,06,21,2.60
2020,04,13,06,22,2.60
2020,04,13,06,23,2.60
2020,04,13,06,24,2.60
2020,04,13,06,25,2.50
2020,04,13,06,26,2.50
2020,04,13,06,27,2.50
2020,04,13,06,28,2.50
2020,04,13,06,29,2.50
2020,04,13,06,30,2.50
2020,04,13,06,31,2.50
2020,04,13,06,32,2.50
2020,04,13,06,33,2.60
2020,04,13,06,34,2.60
2020,04,13,06,35,2.60
2020,04,13,06,36,2.60
2020,04,13,06,37,2.70
2020,04,13,06,38,2.70
2020,04,13,06,39,2.70
2020,04,13,06,40,2.70
2020,04,13,06,41,2.70
2020,04,13,06,42,2.80
2020,04,13,06,43,2.80
2020,04,13,06,44,2.80
2020,04,13,06,45,2.80
2020,04,13,06,46,2.80
2020,04,13,06,47,2.80
2020,04,13,06,48,2.80
2020,04,13,06,49,2.80
2020,04,13,06,50,2.80
2020,04,13,06,51,2.80
2020,04,13,06,52,2.80
2020,04,13,06,53,2.80
2020,04,13,06,54,2.80
2020,04,13,06,55,2.80
2020,04,13,06,56,2.80
2020,04,13,06,57,2.80
2020,04,13,06,58,2.80
2020,04,13,06,59,2.80
2020,04,13,07,00,2.80
2020,04,13,07,01,2.80
2020,04,13,07,02,2.80
2020,04,13,07,03,2.80
2020,04,13,07,04,2.80
2020,04,13,07,05,2.80
2020,04,13,07,06,2.80
2020,04,13,07,07,2.80
2020,04,13,07,08,2.80
2020,04,13,07,09,2.80
2020,04,13,07,10,2.80
2020,04,13,07,11,2.80
2020,04,13,07,12,2.80
2020,04,13,07,13,2.80
2020,04,13,07,14,2.80
2020,04,13,07,15,2.80
2020,04,13,07,16,2.80
2020,04,13,07,17,2.80
2020,04,13,07,18,2.80
2020,04,13,07,19,2.80
2020,04,13,07,20,2.80
2020,04,13,07,21,2.80
2020,04,13,07,22,2.90
2020,04,13,07,23,2.90
2020,04,13,07,24,2.90
2020,04,13,07,25,2.90
2020,04,13,07,26,2.90
2020,04,13,07,27,2.90
2020,04,13,07,28,2.90
2020,04,13,07,29,2.90
2020,04,13,07,30,2.90
2020,04,13,07,31,3.00
2020,04,13,07,32,3.00
2020,04,13,07,33,3.00
2020,04,13,07,34,3.00
2020,04,13,07,35,3.00
2020,04,13,07,36,3.10
2020,04,13,07,37,3.10
2020,04,13,07,38,3.10
2020,04,13,07,39,3.20
2020,04,13,07,40,3.20
2020,04,13,07,41,3.20
2020,04,13,07,42,3.20
2020,04,13,07,43,3.20
2020,04,13,07,44,3.30
2020,04,13,07,45,3.30
2020,04,13,07,46,3.30
2020,04,13,07,47,3.40
2020,04,13,07,48,3.40
2020,04,13,07,49,3.50
2020,04,13,07,50,3.60
2020,04,13,07,51,3.60
2020,04,13,07,52,3.70
2020,04,13,07,53,3.70
2020,04,13,07,54,3.80
2020,04,13,07,55,3.80
2020,04,13,07,56,3.90
2020,04,13,07,57,3.90
2020,04,13,07,58,3.90
2020,04,13,07,59,4.00
2020,04,13,08,00,4.00
2020,04,13,08,01,4.10
2020,04,13,08,02,4.20
2020,04,13,08,03,4.20
2020,04,13,08,04,4.20
2020,04,13,08,05,4.20
2020,04,13,08,06,4.20
2020,04,13,08,07,4.20
2020,04,13,08,08,4.20
2020,04,13,08,09,4.30
2020,04,13,08,10,4.30
2020,04,13,08,11,4.30
2020,04,13,08,12,4.30
2020,04,13,08,13,4.40
2020,04,13,08,14,4.40
2020,04,13,08,15,4.40
2020,04,13,08,16,4.50
2020,04,13,08,17,4.50
2020,04,13,08,18,4.50
2020,04,13,08,19,4.50
2020,04,13,08,20,4.60
2020,04,13,08,21,4.60
2020,04,13,08,22,4.60
2020,04,13,08,23,4.60
2020,04,13,08,24,4.60
2020,04,13,08,25,4.70
2020,04,13,08,26,4.70
2020,04,13,08,27,4.70
2020,04,13,08,28,4.80
2020,04,13,08,29,4.80
2020,04,13,08,30,4.80
2020,04,13,08,31,4.90
2020,04,13,08,32,4.90
2020,04,13,08,33,5.00
2020,04,13,08,34,5.10
2020,04,13,08,35,5.10
2020,04,13,08,36,5.20
2020,04,13,08,37,5.20
2020,04,13,08,38,5.30
2020,04,13,08,39,5.30
2020,04,13,08,40,5.40
2020,04,13,08,41,5.40
2020,04,13,08,42,5.40
2020,04,13,08,43,5.50
2020,04,13,08,44,5.60
2020,04,13,08,45,5.60
2020,04,13,08,46,5.70
2020,04,13,08,47,5.70
2020,04,13,08,48,5.80
2020,04,13,08,49,5.80
2020,04,13,08,50,5.80
2020,04,13,08,51,5.90
2020,04,13,08,52,5.90
2020,04,13,08,53,6.00
2020,04,13,08,54,6.00
2020,04,13,08,55,6.00
2020,04,13,08,56,6.00
2020,04,13,08,57,6.10
2020,04,13,08,58,6.10
2020,04,13,08,59,6.10
2020,04,13,09,00,6.10
2020,04,13,09,01,6.20
2020,04,13,09,02,6.20
2020,04,13,09,03,6.20
2020,04,13,09,04,6.20
2020,04,13,09,05,6.30
2020,04,13,09,06,6.30
2020,04,13,09,07,6.30
2020,04,13,09,08,6.30
2020,04,13,09,09,6.30
2020,04,13,09,10,6.40
2020,04,13,09,11,6.40
2020,04,13,09,12,6.40
2020,04,13,09,13,6.50
2020,04,13,09,14,6.50
2020,04,13,09,15,6.60
2020,04,13,09,16,6.60
2020,04,13,09,17,6.70
2020,04,13,09,18,6.70
2020,04,13,09,19,6.80
2020,04,13,09,20,6.80
2020,04,13,09,21,6.90
2020,04,13,09,22,6.90
2020,04,13,09,23,7.00
2020,04,13,09,24,7.10
2020,04,13,09,25,7.10
2020,04,13,09,26,7.20
2020,04,13,09,27,7.20
2020,04,13,09,28,7.30
2020,04,13,09,29,7.30
2020,04,13,09,30,7.40
2020,04,13,09,31,7.40
2020,04,13,09,32,7.50
2020,04,13,09,33,7.50
2020,04,13,09,34,7.60
2020,04,13,09,35,7.70
2020,04,13,09,36,7.80
2020,04,13,09,37,7.80
2020,04,13,09,38,7.90
2020,04,13,09,39,8.10
2020,04,13,09,40,8.20
2020,04,13,09,41,8.30
2020,04,13,09,42,8.40
2020,04,13,09,43,8.60
2020,04,13,09,44,8.70
2020,04,13,09,45,8.80
2020,04,13,09,46,8.90
2020,04,13,09,47,9.10
2020,04,13,09,48,9.20
2020,04,13,09,49,9.30
2020,04,13,09,50,9.40
2020,04,13,09,51,9.50
2020,04,13,09,52,9.60
2020,04,13,09,53,9.70
2020,04,13,09,54,9.70
2020,04,13,09,55,9.80
2020,04,13,09,56,9.90
2020,04,13,09,57,9.90
2020,04,13,09,58,10.00
2020,04,13,09,59,10.00
2020,04,13,10,00,10.10
2020,04,13,10,01,10.10
2020,04,13,10,02,10.20
2020,04,13,10,03,10.20
2020,04,13,10,04,10.20
2020,04,13,10,05,10.30
2020,04,13,10,06,10.30
2020,04,13,10,07,10.40
2020,04,13,10,08,10.40
2020,04,13,10,09,10.50
2020,04,13,10,10,10.50
2020,04,13,10,11,10.60
2020,04,13,10,12,10.60
2020,04,13,10,13,10.70
2020,04,13,10,14,10.70
2020,04,13,10,15,10.80
2020,04,13,10,16,10.80
2020,04,13,10,17,10.90
2020,04,13,10,18,10.90
2020,04,13,10,19,11.00
2020,04,13,10,20,11.00
2020,04,13,10,21,11.10
2020,04,13,10,22,11.10
2020,04,13,10,23,11.20
2020,04,13,10,24,11.20
2020,04,13,10,25,11.20
2020,04,13,10,26,11.20
2020,04,13,10,27,11.20
2020,04,13,10,28,11.20
2020,04,13,10,29,11.20
2020,04,13,10,30,11.30
2020,04,13,10,31,11.30
2020,04,13,10,32,11.30
2020,04,13,10,33,11.30
2020,04,13,10,34,11.40
2020,04,13,10,35,11.40
2020,04,13,10,36,11.40
2020,04,13,10,37,11.50
2020,04,13,10,38,11.50
2020,04,13,10,39,11.60
2020,04,13,10,40,11.60
2020,04,13,10,41,11.60
2020,04,13,10,42,11.60
2020,04,13,10,43,11.60
2020,04,13,10,44,11.60
2020,04,13,10,45,11.50
2020,04,13,10,46,11.50
2020,04,13,10,47,11.50
2020,04,13,10,48,11.60
2020,04,13,10,49,11.60
2020,04,13,10,50,11.60
2020,04,13,10,51,11.70
2020,04,13,10,52,11.70
2020,04,13,10,53,11.80
2020,04,13,10,54,11.90
2020,04,13,10,55,12.00
2020,04,13,10,56,12.00
2020,04,13,10,57,12.10
2020,04,13,10,58,12.20
2020,04,13,10,59,12.20
2020,04,13,11,00,12.30
2020,04,13,11,01,12.30
2020,04,13,11,02,12.30
2020,04,13,11,03,12.40
2020,04,13,11,04,12.40
2020,04,13,11,05,12.40
2020,04,13,11,06,12.40
2020,04,13,11,07,12.40
2020,04,13,11,08,12.40
2020,04,13,11,09,12.50
2020,04,13,11,10,12.60
2020,04,13,11,11,12.60
2020,04,13,11,12,12.70
2020,04,13,11,13,12.80
2020,04,13,11,14,12.90
2020,04,13,11,15,13.00
2020,04,13,11,16,13.10
2020,04,13,11,17,13.10
2020,04,13,11,18,13.10
2020,04,13,11,19,13.20
2020,04,13,11,20,13.20
2020,04,13,11,21,13.20
2020,04,13,11,22,13.20
2020,04,13,11,23,13.10
2020,04,13,11,24,13.10
2020,04,13,11,25,13.10
2020,04,13,11,26,13.10
2020,04,13,11,27,13.10
2020,04,13,11,28,13.20
2020,04,13,11,29,13.10
2020,04,13,11,30,13.10
2020,04,13,11,31,13.10
2020,04,13,11,32,13.10
2020,04,13,11,33,13.10
2020,04,13,11,34,13.00
2020,04,13,11,35,13.00
2020,04,13,11,36,13.10
2020,04,13,11,37,13.10
2020,04,13,11,38,13.20
2020,04,13,11,39,13.20
2020,04,13,11,40,13.30
2020,04,13,11,41,13.30
2020,04,13,11,42,13.40
2020,04,13,11,43,13.40
2020,04,13,11,44,13.50
2020,04,13,11,45,13.60
2020,04,13,11,46,13.60
2020,04,13,11,47,13.60
2020,04,13,11,48,13.60
2020,04,13,11,49,13.60
2020,04,13,11,50,13.60
2020,04,13,11,51,13.60
2020,04,13,11,52,13.60
2020,04,13,11,53,13.60
2020,04,13,11,54,13.60
2020,04,13,11,55,13.70
2020,04,13,11,56,13.70
2020,04,13,11,57,13.70
2020,04,13,11,58,13.80
2020,04,13,11,59,13.80
2020,04,13,12,00,13.80
2020,04,13,12,01,13.80
2020,04,13,12,02,13.80
2020,04,13,12,03,13.90
2020,04,13,12,04,13.90
2020,04,13,12,05,13.90
2020,04,13,12,06,13.90
2020,04,13,12,07,13.90
2020,04,13,12,08,13.90
2020,04,13,12,09,13.90
2020,04,13,12,10,13.80
2020,04,13,12,11,13.80
2020,04,13,12,12,13.80
2020,04,13,12,13,13.70
2020,04,13,12,14,13.70
2020,04,13,12,15,13.60
2020,04,13,12,16,13.60
2020,04,13,12,17,13.50
2020,04,13,12,18,13.50
2020,04,13,12,19,13.50
2020,04,13,12,20,13.40
2020,04,13,12,21,13.40
2020,04,13,12,22,13.40
2020,04,13,12,23,13.40
2020,04,13,12,24,13.40
2020,04,13,12,25,13.40
2020,04,13,12,26,13.40
2020,04,13,12,27,13.40
2020,04,13,12,28,13.40
2020,04,13,12,29,13.30
2020,04,13,12,30,13.30
2020,04,13,12,31,13.20
2020,04,13,12,32,13.20
2020,04,13,12,33,13.10
2020,04,13,12,34,13.10
2020,04,13,12,35,13.00
2020,04,13,12,36,13.00
2020,04,13,12,37,13.00
2020,04,13,12,38,13.10
2020,04,13,12,39,13.10
2020,04,13,12,40,13.20
2020,04,13,12,41,13.20
2020,04,13,12,42,13.30
2020,04,13,12,43,13.30
2020,04,13,12,44,13.20
2020,04,13,12,45,13.20
2020,04,13,12,46,13.20
2020,04,13,12,47,13.20
2020,04,13,12,48,13.20
2020,04,13,12,49,13.30
2020,04,13,12,50,13.40
2020,04,13,12,51,13.50
2020,04,13,12,52,13.50
2020,04,13,12,53,13.60
2020,04,13,12,54,13.70
2020,04,13,12,55,13.70
2020,04,13,12,56,13.70
2020,04,13,12,57,13.70
2020,04,13,12,58,13.70
2020,04,13,12,59,13.70
2020,04,13,13,00,13.80
2020,04,13,13,01,13.80
2020,04,13,13,02,13.80
2020,04,13,13,03,13.80
2020,04,13,13,04,13.80
2020,04,13,13,05,13.90
2020,04,13,13,06,13.90
2020,04,13,13,07,14.00
2020,04,13,13,08,14.00
2020,04,13,13,09,14.10
2020,04,13,13,10,14.20
2020,04,13,13,11,14.30
2020,04,13,13,12,14.30
2020,04,13,13,13,14.40
2020,04,13,13,14,14.40
2020,04,13,13,15,14.40
2020,04,13,13,16,14.50
2020,04,13,13,17,14.50
2020,04,13,13,18,14.50
2020,04,13,13,19,14.60
2020,04,13,13,20,14.60
2020,04,13,13,21,14.60
2020,04,13,13,22,14.70
2020,04,13,13,23,14.80
2020,04,13,13,24,14.80
2020,04,13,13,25,14.90
2020,04,13,13,26,14.80
2020,04,13,13,27,14.70
2020,04,13,13,28,14.60
2020,04,13,13,29,14.60
2020,04,13,13,30,14.60
2020,04,13,13,31,14.50
2020,04,13,13,32,14.40
2020,04,13,13,33,14.40
2020,04,13,13,34,14.40
2020,04,13,13,35,14.40
2020,04,13,13,36,14.30
2020,04,13,13,37,14.30
2020,04,13,13,38,14.20
2020,04,13,13,39,14.20
2020,04,13,13,40,14.20
2020,04,13,13,41,14.20
2020,04,13,13,42,14.20
2020,04,13,13,43,14.20
2020,04,13,13,44,14.20
2020,04,13,13,45,14.30
2020,04,13,13,46,14.30
2020,04,13,13,47,14.30
2020,04,13,13,48,14.30
2020,04,13,13,49,14.30
2020,04,13,13,50,14.30
2020,04,13,13,51,14.30
2020,04,13,13,52,14.30
2020,04,13,13,53,14.30
2020,04,13,13,54,14.30
2020,04,13,13,55,14.40
2020,04,13,13,56,14.40
2020,04,13,13,57,14.40
2020,04,13,13,58,14.40
2020,04,13,13,59,14.50
2020,04,13,14,00,14.50
2020,04,13,14,01,14.50
2020,04,13,14,02,14.60
2020,04,13,14,03,14.60
2020,04,13,14,04,14.60
2020,04,13,14,05,14.60
2020,04,13,14,06,14.60
2020,04,13,14,07,14.60
2020,04,13,14,08,14.60
2020,04,13,14,09,14.70
2020,04,13,14,10,14.70
2020,04,13,14,11,14.70
2020,04,13,14,12,14.80
2020,04,13,14,13,14.80
2020,04,13,14,14,14.90
2020,04,13,14,15,15.00
2020,04,13,14,16,15.10
2020,04,13,14,17,15.20
2020,04,13,14,18,15.30
2020,04,13,14,19,15.40
2020,04,13,14,20,15.40
2020,04,13,14,21,15.40
2020,04,13,14,22,15.50
2020,04,13,14,23,15.50
2020,04,13,14,24,15.50
2020,04,13,14,25,15.60
2020,04,13,14,26,15.60
2020,04,13,14,27,15.60
2020,04,13,14,28,15.70
2020,04,13,14,29,15.70
2020,04,13,14,30,15.70
2020,04,13,14,31,15.60
2020,04,13,14,32,15.60
2020,04,13,14,33,15.60
2020,04,13,14,34,15.60
2020,04,13,14,35,15.50
2020,04,13,14,36,15.50
2020,04,13,14,37,15.50
2020,04,13,14,38,15.50
2020,04,13,14,39,15.40
2020,04,13,14,40,15.40
2020,04,13,14,41,15.40
2020,04,13,14,42,15.40
2020,04,13,14,43,15.40
2020,04,13,14,44,15.40
2020,04,13,14,45,15.40
2020,04,13,14,46,15.40
2020,04,13,14,47,15.40
2020,04,13,14,48,15.40
2020,04,13,14,49,15.40
2020,04,13,14,50,15.40
2020,04,13,14,51,15.40
2020,04,13,14,52,15.50
2020,04,13,14,53,15.60
2020,04,13,14,54,15.60
2020,04,13,14,55,15.70
2020,04,13,14,56,15.80
2020,04,13,14,57,15.80
2020,04,13,14,58,15.80
2020,04,13,14,59,15.80
2020,04,13,15,00,15.80
2020,04,13,15,01,15.80
2020,04,13,15,02,15.80
2020,04,13,15,03,15.60
2020,04,13,15,04,15.60
2020,04,13,15,05,15.50
2020,04,13,15,06,15.50
2020,04,13,15,07,15.60
2020,04,13,15,08,15.60
2020,04,13,15,09,15.60
2020,04,13,15,10,15.60
2020,04,13,15,11,15.50
2020,04,13,15,12,15.50
2020,04,13,15,13,15.40
2020,04,13,15,14,15.40
2020,04,13,15,15,15.40
2020,04,13,15,16,15.30
2020,04,13,15,17,15.30
2020,04,13,15,18,15.30
2020,04,13,15,19,15.30
2020,04,13,15,20,15.30
2020,04,13,15,21,15.30
2020,04,13,15,22,15.40
2020,04,13,15,23,15.40
2020,04,13,15,24,15.40
2020,04,13,15,25,15.50
2020,04,13,15,26,15.50
2020,04,13,15,27,15.50
2020,04,13,15,28,15.60
2020,04,13,15,29,15.60
2020,04,13,15,30,15.60
2020,04,13,15,31,15.70
2020,04,13,15,32,15.70
2020,04,13,15,33,15.70
2020,04,13,15,34,15.70
2020,04,13,15,35,15.70
2020,04,13,15,36,15.80
2020,04,13,15,37,15.80
2020,04,13,15,38,15.80
2020,04,13,15,39,15.80
2020,04,13,15,40,15.80
2020,04,13,15,41,15.80
2020,04,13,15,42,15.80
2020,04,13,15,43,15.80
2020,04,13,15,44,15.80
2020,04,13,15,45,15.80
2020,04,13,15,46,15.80
2020,04,13,15,47,15.80
2020,04,13,15,48,15.70
2020,04,13,15,49,15.70
2020,04,13,15,50,15.70
2020,04,13,15,51,15.70
2020,04,13,15,52,15.70
2020,04,13,15,53,15.70
2020,04,13,15,54,15.80
2020,04,13,15,55,15.80
2020,04,13,15,56,15.80
2020,04,13,15,57,15.80
2020,04,13,15,58,15.90
2020,04,13,15,59,15.90
2020,04,13,16,00,15.90
2020,04,13,16,01,15.90
2020,04,13,16,02,15.90
2020,04,13,16,03,15.90
2020,04,13,16,04,15.90
2020,04,13,16,05,15.90
2020,04,13,16,06,15.90
2020,04,13,16,07,15.80
2020,04,13,16,08,15.80
2020,04,13,16,09,15.80
2020,04,13,16,10,15.80
2020,04,13,16,11,15.80
2020,04,13,16,12,15.90
2020,04,13,16,13,15.90
2020,04,13,16,14,15.90
2020,04,13,16,15,15.90
2020,04,13,16,16,15.90
2020,04,13,16,17,15.90
2020,04,13,16,18,15.80
2020,04,13,16,19,15.80
2020,04,13,16,20,15.90
2020,04,13,16,21,15.90
2020,04,13,16,22,16.00
2020,04,13,16,23,16.00
2020,04,13,16,24,16.00
2020,04,13,16,25,16.10
2020,04,13,16,26,16.00
2020,04,13,16,27,16.00
2020,04,13,16,28,16.00
2020,04,13,16,29,16.00
2020,04,13,16,30,16.00
2020,04,13,16,31,15.90
2020,04,13,16,32,15.90
2020,04,13,16,33,15.80
2020,04,13,16,34,15.80
2020,04,13,16,35,15.80
2020,04,13,16,36,15.80
2020,04,13,16,37,15.70
2020,04,13,16,38,15.70
2020,04,13,16,39,15.60
2020,04,13,16,40,15.60
2020,04,13,16,41,15.60
2020,04,13,16,42,15.60
2020,04,13,16,43,15.60
2020,04,13,16,44,15.50
2020,04,13,16,45,15.50
2020,04,13,16,46,15.60
2020,04,13,16,47,15.60
2020,04,13,16,48,15.60
2020,04,13,16,49,15.60
2020,04,13,16,50,15.70
2020,04,13,16,51,15.70
2020,04,13,16,52,15.80
2020,04,13,16,53,15.80
2020,04,13,16,54,15.80
2020,04,13,16,55,15.80
2020,04,13,16,56,15.80
2020,04,13,16,57,15.80
2020,04,13,16,58,15.80
2020,04,13,16,59,15.80
2020,04,13,17,00,15.80
2020,04,13,17,01,15.80
2020,04,13,17,02,15.80
2020,04,13,17,03,15.80
2020,04,13,17,04,15.80
2020,04,13,17,05,15.80
2020,04,13,17,06,15.80
2020,04,13,17,07,15.80
2020,04,13,17,08,15.80
2020,04,13,17,09,15.80
2020,04,13,17,10,15.80
2020,04,13,17,11,15.80
2020,04,13,17,12,15.80
2020,04,13,17,13,15.80
2020,04,13,17,14,15.90
2020,04,13,17,15,15.90
2020,04,13,17,16,15.90
2020,04,13,17,17,15.90
2020,04,13,17,18,16.00
2020,04,13,17,19,16.00
2020,04,13,17,20,15.90
2020,04,13,17,21,15.90
2020,04,13,17,22,15.90
2020,04,13,17,23,15.90
2020,04,13,17,24,15.90
2020,04,13,17,25,15.90
2020,04,13,17,26,15.90
2020,04,13,17,27,15.90
2020,04,13,17,28,15.90
2020,04,13,17,29,15.90
2020,04,13,17,30,15.90
2020,04,13,17,31,15.90
2020,04,13,17,32,15.80
2020,04,13,17,33,15.80
2020,04,13,17,34,15.80
2020,04,13,17,35,15.70
2020,04,13,17,36,15.70
2020,04,13,17,37,15.60
2020,04,13,17,38,15.60
2020,04,13,17,39,15.60
2020,04,13,17,40,15.50
2020,04,13,17,41,15.50
2020,04,13,17,42,15.50
2020,04,13,17,43,15.50
2020,04,13,17,44,15.50
2020,04,13,17,45,15.50